Temperature
14 15 15 14 14 14 14 14 14 14 15 15 15 15 15 15 14 14 14 14 14 14 14 14 14 14 14 14 15 15 15 15 15 15 15 15 15 15
15 14 14 14 14 14 14 14 14 14 14 14 15 15 15 14 14 14 13 13 13 13 13 13 14 14 14 14 14 14 14 14 14 15 15 15 15 15
14 14 14 14 14 14 14 14 14 14 14 14 14 14 14 14 14 14 13 13 13 13 13 13 13 14 14 14 14 14 14 14 14 14 14 14 14 15
14 14 14 14 14 14 14 14 13 13 13 13 14 14 14 14 14 13 13 13 13 13 13 13 13 13 13 13 14 14 14 14 14 14 14 14 14 14
14 14 14 14 14 14 13 13 13 13 13 13 13 13 13 13 13 13 13 13 13 13 13 13 13 13 13 13 13 13 13 14 14 14 14 14 14 14
15 14 14 14 14 14 13 13 13 13 13 13 13 13 13 14 13 13 13 13 13 13 13 13 13 13 13 13 13 13 13 13 13 13 13 14 14 14
15 15 14 14 14 14 13 13 13 13 13 13 13 13 13 13 13 13 13 13 13 13 13 13 13 13 13 13 13 13 13 13 13 13 13 13 13 13
15 15 15 14 14 14 14 14 13 13 13 13 13 13 13 13 13 13 12 12 12 12 12 13 13 13 13 13 13 13 13 13 13 13 13 13 13 13
15 15 15 14 14 14 14 14 13 13 13 13 13 13 13 13 12 12 12 12 12 12 12 12 12 12 12 12 12 13 13 13 13 13 12 12 12 13
15 15 15 14 14 14 13 13 13 13 13 13 13 13 13 13 12 12 12 11 12 12 11 11 12 12 12 12 12 12 12 12 12 12 12 12 12 12
15 15 14 14 14 14 13 13 13 13 13 12 12 12 12 12 12 12 11 11 11 11 11 11 12 12 12 12 12 12 12 12 12 12 12 12 12 12
14 14 14 14 14 14 13 13 13 13 13 12 12 12 12 12 12 12 11 11 11 11 11 11 11 12 12 12 12 12 12 12 12 12 12 12 12 12
13 14 14 14 13 13 13 13 13 13 12 12 12 12 12 12 12 12 12 12 11 11 11 11 11 11 11 11 12 12 12 12 12 12 12 12 12 11
13 13 13 13 13 13 13 13 13 12 12 12 11 11 11 11 12 12 12 12 12 12 11 11 11 11 11 11 11 11 11 11 12 12 12 12 12 12
12 12 12 12 12 12 12 12 12 12 12 11 11 11 11 11 12 12 12 12 11 11 11 11 11 11 10 10 10 10 11 11 11 11 11 11 11 11
12 12 12 12 12 12 12 12 12 12 12 11 11 11 11 11 11 11 12 12 11 11 11 11 11 11 10 10 10 10 10 10 11 11 11 11 11 11
11 11 11 11 11 11 11 11 12 11 11 11 11 11 11 11 11 11 11 11 11 11 11 11 11 11 10 10 10 10 10 10 10 10 11 11 11 11
11 11 10 10 10 11 11 11 11 11 11 11 11 11 11 11 11 11 11 11 11 11 11 11 10 10 10 10 10 10 10 10 10 10 10 10 10 11
10 10 10 10 10 10 11 11 11 11 11 11 11 11 11 11 11 10 10 10 10 10 10 10 10 10 10 9 10 10 10 10 10 10 10 10 10 10
10 10 10 10 10 10 10 10 10 10 10 10 10 10 10 10 10 10 10 10 10 10 10 10 10 10 10 9 10 10 10 10 10 10 10 10 10 10
10 10 10 10 10 10 10 10 10 10 10 9 9 9 9 9 9 9 9 9 9 9 9 9 10 10 10 9 9 9 10 10 10 10 10 10 10 10
9 9 9 9 9 9 9 9 8 9 9 9 9 9 9 9 9 9 9 9 9 9 9 9 9 9 9 9 9 9 9 10 10 10 10 10 10 9
8 8 8 8 8 8 8 8 8 8 8 8 8 8 8 8 9 9 9 9 9 9 9 9 9 9 9 9 9 9 9 9 9 10 10 10 10 10
Wind_Speed
2 3 3 2 2 2 1 2 2 4 4 3 2 1 3 4 7 7 7 9 12 14 14 14 14 14 14 14 14 15 15 15 16 16 19 21 23 24
2 1 2 3 3 2 2 2 2 3 4 3 3 2 1 3 5 6 7 10 14 18 19 19 18 17 17 16 16 16 16 16 17 17 18 19 21 22
4 4 4 4 3 3 3 3 3 3 4 5 4 4 3 4 4 7 10 12 13 19 22 23 21 21 20 19 18 18 18 18 18 18 18 19 20 21
5 5 5 5 5 4 4 5 4 4 4 6 5 5 6 5 6 6 8 12 12 15 18 22 24 24 23 21 21 20 20 20 20 19 19 20 20 21
5 6 6 6 6 5 5 5 5 6 4 5 6 5 5 6 6 6 7 6 12 14 16 19 23 25 25 25 24 24 23 22 21 21 21 21 21 21
6 6 6 6 7 6 6 6 6 6 6 6 6 6 6 6 4 5 6 5 6 9 10 11 16 23 27 27 27 26 26 24 24 23 22 21 21 21
7 7 8 8 8 7 8 6 6 5 6 6 6 6 6 4 4 4 5 5 6 6 6 6 6 8 14 22 26 27 27 26 25 24 23 22 22 22
7 8 9 10 12 14 14 13 11 9 8 7 7 7 7 6 5 5 5 6 6 4 4 6 6 6 5 11 18 24 27 27 26 25 24 23 23 23
8 8 10 11 9 9 13 16 16 18 16 11 11 11 10 8 7 7 7 8 8 6 6 8 7 8 6 15 17 18 23 25 25 25 25 24 24 23
9 9 9 10 11 9 9 9 10 12 14 14 13 14 14 11 10 10 9 9 9 8 9 10 9 8 10 9 16 16 19 23 25 25 25 24 24 24
11 11 11 11 13 14 10 10 10 10 13 17 18 18 20 19 13 8 8 9 11 9 7 8 8 8 7 7 11 17 20 23 25 25 25 24 24 22
9 10 13 13 13 13 10 10 12 11 11 12 11 13 14 15 18 14 12 12 12 10 8 7 8 7 7 6 6 6 10 16 21 23 24 24 22 14
8 7 7 8 10 12 11 11 14 12 10 10 10 10 10 10 12 12 13 13 13 12 8 8 7 6 7 6 6 6 5 6 8 12 20 23 23 16
8 8 7 7 7 10 11 14 18 14 11 10 11 11 10 10 9 11 12 13 14 14 11 9 8 8 8 9 7 6 6 6 7 8 7 15 20 23
9 12 14 15 14 11 15 18 15 11 11 12 13 12 11 11 10 8 9 11 12 14 16 12 12 10 9 10 10 8 8 7 7 7 7 7 7 7
9 11 13 16 16 16 15 14 11 12 13 13 12 11 10 9 9 9 9 8 9 10 11 14 12 13 12 12 10 10 9 8 7 7 7 7 6 6
5 7 9 10 10 10 10 10 10 10 12 13 13 12 11 10 10 9 9 9 9 9 9 8 9 10 13 12 11 11 10 9 8 8 7 8 7 7
4 8 10 11 12 12 11 9 9 9 10 10 10 10 10 10 10 9 8 9 10 9 9 8 7 8 8 10 14 13 11 10 9 8 7 8 8 7
6 10 11 11 11 10 10 10 9 9 8 8 9 9 10 10 9 9 9 9 9 9 9 7 7 9 10 12 10 14 12 10 9 8 8 8 9 8
8 9 9 9 9 9 10 9 8 8 8 8 9 9 9 9 9 9 10 10 10 9 9 8 9 9 11 11 9 7 12 11 9 9 8 7 8 8
9 8 8 9 9 9 9 9 9 9 9 8 9 9 9 9 9 9 10 13 11 10 11 10 10 11 8 7 9 9 8 13 13 10 8 7 7 6
8 8 8 9 9 9 9 10 10 10 10 9 9 9 9 9 10 11 11 10 9 9 11 9 8 7 7 9 11 11 10 8 11 14 13 10 7 7
8 8 8 10 10 9 9 10 11 10 9 9 9 9 9 9 9 9 10 10 9 9 9 8 8 8 9 10 10 10 11 10 8 7 8 12 15 13
Wind_Direction
238 203 230 275 258 260 283 287 297 308 311 324 358 143 171 191 186 212 246 245 231 233 242 248 253 254 254 256 257 256 256 255 253 251 248 246 244 243
223 242 257 285 303 289 259 261 258 269 286 305 297 284 238 261 222 237 261 262 242 239 244 246 247 248 250 251 253 254 255 255 254 253 252 249 247 246
233 221 217 236 274 300 294 274 257 255 268 283 290 294 267 245 252 253 263 261 252 247 244 242 240 241 244 246 248 250 251 252 253 253 253 251 249 247
228 233 233 234 220 244 270 279 273 262 254 271 279 280 272 252 236 232 255 266 265 266 252 241 237 238 240 243 246 248 249 250 251 252 252 252 251 249
233 234 234 238 238 236 245 260 271 276 264 263 270 264 262 259 251 246 251 255 266 273 263 245 238 238 239 241 244 245 247 248 248 249 250 251 251 250
244 245 244 239 238 235 246 247 255 265 270 269 267 265 259 254 245 244 260 251 257 271 275 260 242 238 239 241 243 245 245 246 247 248 249 250 250 250
240 243 247 244 240 241 252 251 259 260 265 267 271 273 269 276 269 263 270 272 262 259 261 262 248 235 239 243 245 246 245 243 242 244 246 248 250 250
243 245 249 240 237 233 238 242 244 252 259 265 272 273 277 280 279 278 275 276 276 270 280 280 276 267 250 245 242 238 239 238 238 240 242 244 246 247
249 250 256 257 245 234 232 235 241 244 241 246 258 263 270 275 283 284 277 275 273 276 287 278 271 270 263 270 269 251 237 235 234 236 238 241 243 244
251 250 250 257 262 257 256 249 238 239 236 236 242 249 253 255 256 261 265 270 266 259 251 262 260 257 262 259 263 255 241 234 234 234 236 239 241 243
250 252 250 250 250 249 251 257 260 258 253 246 232 236 241 247 249 259 263 266 271 265 248 253 257 256 253 253 254 253 243 235 233 233 236 238 241 243
252 251 250 249 252 245 243 249 255 257 262 269 261 251 248 249 243 238 244 252 261 266 252 253 261 261 265 253 249 250 243 240 237 237 237 238 239 238
263 263 262 258 251 251 248 251 255 260 263 263 265 261 252 247 241 232 228 233 245 251 253 255 263 263 261 265 264 257 241 233 231 238 239 239 236 226
266 275 282 304 294 277 263 256 258 262 264 264 263 262 260 255 247 239 231 228 229 239 246 251 261 263 267 271 270 265 258 246 237 232 224 230 231 230
270 284 296 298 294 281 262 257 257 257 255 256 258 258 258 257 254 250 244 237 232 237 243 239 243 251 252 258 265 265 268 264 250 243 236 224 217 214
269 282 285 280 274 266 268 264 250 246 247 252 254 257 257 258 258 253 251 246 246 246 238 235 233 238 247 250 253 259 259 259 257 252 247 242 232 217
300 285 279 276 271 267 262 258 255 250 246 247 253 257 259 260 260 256 253 251 250 252 250 240 232 232 238 241 249 251 253 256 253 250 250 252 244 234
278 277 277 276 275 274 272 270 263 261 261 258 255 256 258 260 262 262 258 255 256 253 251 250 248 250 249 245 233 245 250 254 254 248 244 251 253 243
254 267 270 272 274 278 280 282 281 276 270 267 263 263 262 262 262 263 263 261 258 255 251 246 244 247 253 259 243 222 234 244 247 248 243 243 250 249
257 269 275 278 281 283 283 282 283 286 283 277 272 271 269 269 268 264 263 263 262 261 259 251 244 240 244 255 262 252 226 234 243 247 247 245 247 249
288 290 292 295 297 298 298 296 294 291 288 286 281 278 274 272 270 268 266 263 260 260 258 257 252 244 245 251 259 259 247 228 227 234 237 239 246 246
293 298 301 300 300 299 300 301 298 294 292 288 284 280 278 274 271 267 264 262 257 256 261 262 260 253 244 245 252 258 259 252 236 233 238 234 230 235
309 308 306 303 301 301 302 303 303 300 296 291 288 287 284 280 274 270 268 265 264 261 261 262 262 257 250 246 249 254 258 258 249 234 237 235 230 233
Height
1554 1555 1556 1557 1557 1558 1558 1559 1559 1558 1558 1558 1558 1557 1556 1556 1555 1554 1553 1552 1551 1551 1550 1550 1550 1550 1550 1550 1551 1551 1552 1553 1554 1555 1557 1558 1560 1562
1552 1553 1554 1554 1555 1555 1556 1556 1556 1556 1555 1555 1555 1555 1554 1553 1552 1551 1549 1548 1547 1546 1546 1545 1545 1545 1545 1545 1545 1546 1546 1547 1548 1549 1550 1551 1552 1554
1550 1551 1551 1551 1552 1552 1552 1553 1553 1553 1552 1551 1551 1551 1550 1549 1548 1547 1545 1544 1543 1542 1541 1541 1540 1540 1539 1539 1539 1539 1540 1541 1541 1542 1543 1544 1545 1547
1548 1548 1548 1549 1549 1549 1549 1549 1549 1549 1548 1547 1547 1546 1546 1545 1544 1542 1541 1540 1539 1538 1537 1536 1535 1535 1534 1534 1533 1533 1533 1534 1534 1535 1536 1537 1538 1539
1545 1545 1545 1546 1545 1545 1545 1545 1545 1545 1545 1543 1542 1542 1541 1540 1539 1538 1537 1535 1534 1533 1532 1531 1530 1530 1529 1528 1528 1527 1527 1527 1527 1528 1529 1530 1530 1531
1542 1542 1542 1542 1542 1542 1541 1541 1541 1540 1540 1539 1538 1537 1536 1536 1535 1533 1532 1531 1529 1529 1527 1526 1525 1524 1523 1522 1522 1521 1521 1520 1520 1521 1521 1522 1523 1523
1537 1537 1538 1538 1537 1537 1537 1537 1536 1535 1535 1534 1533 1532 1531 1531 1530 1528 1527 1525 1524 1523 1522 1521 1520 1518 1517 1516 1516 1515 1515 1514 1514 1514 1514 1514 1515 1515
1533 1533 1533 1533 1532 1532 1532 1531 1531 1530 1529 1528 1527 1526 1525 1525 1524 1523 1521 1520 1517 1518 1516 1514 1514 1512 1511 1510 1510 1509 1508 1508 1508 1507 1507 1507 1507 1507
1527 1527 1527 1527 1527 1526 1525 1525 1525 1524 1523 1523 1521 1519 1519 1519 1518 1516 1515 1513 1511 1510 1510 1506 1506 1505 1504 1504 1504 1503 1502 1501 1501 1500 1500 1499 1499 1499
1521 1521 1521 1521 1521 1521 1520 1519 1518 1517 1516 1515 1514 1512 1512 1511 1511 1510 1508 1506 1503 1502 1503 1499 1498 1497 1497 1497 1496 1496 1495 1494 1494 1493 1493 1492 1491 1491
1516 1515 1515 1515 1514 1514 1513 1512 1511 1510 1510 1509 1507 1505 1504 1504 1504 1503 1500 1499 1495 1494 1495 1494 1491 1490 1490 1489 1489 1488 1488 1487 1487 1486 1486 1485 1484 1483
1510 1509 1509 1509 1508 1507 1506 1505 1503 1502 1502 1501 1500 1498 1497 1496 1495 1494 1492 1491 1488 1486 1486 1487 1485 1485 1482 1481 1481 1481 1480 1480 1479 1479 1478 1477 1477 1476
1503 1503 1503 1502 1501 1501 1500 1498 1496 1496 1494 1492 1491 1489 1488 1487 1486 1484 1483 1482 1480 1478 1479 1480 1478 1477 1476 1474 1473 1474 1473 1472 1471 1471 1470 1470 1469 1469
1497 1497 1496 1495 1494 1493 1492 1490 1489 1488 1486 1483 1481 1480 1479 1478 1477 1476 1475 1473 1471 1470 1470 1471 1470 1469 1468 1466 1465 1465 1465 1465 1464 1463 1462 1462 1462 1461
1491 1490 1489 1488 1486 1484 1483 1482 1480 1478 1476 1474 1471 1470 1470 1469 1468 1467 1466 1465 1463 1462 1462 1462 1461 1460 1460 1458 1457 1456 1456 1456 1456 1456 1455 1454 1453 1453
1484 1482 1481 1479 1478 1475 1473 1472 1470 1468 1466 1464 1462 1461 1461 1460 1459 1458 1457 1456 1454 1453 1453 1453 1452 1452 1451 1450 1449 1448 1448 1448 1447 1448 1447 1446 1446 1445
1477 1475 1473 1471 1469 1467 1465 1463 1462 1460 1458 1455 1454 1452 1452 1451 1450 1449 1448 1447 1445 1444 1443 1444 1444 1443 1442 1442 1440 1439 1439 1439 1439 1439 1439 1438 1437 1437
1471 1468 1466 1463 1461 1459 1458 1456 1454 1452 1450 1448 1446 1444 1443 1442 1440 1440 1439 1438 1436 1435 1435 1435 1436 1435 1434 1432 1432 1431 1431 1430 1430 1431 1430 1429 1428 1429
1464 1461 1459 1457 1455 1453 1451 1448 1446 1444 1442 1439 1437 1436 1434 1433 1432 1430 1429 1429 1427 1427 1426 1427 1427 1427 1425 1423 1422 1424 1423 1422 1422 1422 1422 1421 1420 1420
1459 1456 1454 1451 1449 1446 1443 1441 1438 1436 1434 1432 1430 1428 1426 1425 1423 1421 1420 1420 1419 1418 1418 1418 1418 1417 1417 1416 1415 1415 1415 1414 1414 1413 1414 1413 1413 1413
1454 1451 1448 1445 1443 1440 1437 1434 1431 1428 1426 1424 1422 1420 1418 1417 1415 1413 1412 1411 1410 1409 1409 1408 1408 1409 1409 1409 1407 1405 1406 1407 1406 1406 1406 1406 1406 1405
1448 1445 1442 1439 1436 1433 1430 1427 1424 1421 1418 1416 1413 1411 1410 1408 1406 1405 1404 1403 1401 1401 1400 1400 1400 1401 1400 1399 1398 1397 1397 1398 1398 1398 1398 1399 1398 1397
1442 1439 1435 1433 1430 1427 1424 1420 1417 1414 1411 1409 1406 1404 1402 1400 1398 1397 1396 1395 1394 1393 1392 1392 1392 1392 1392 1391 1390 1390 1390 1390 1390 1390 1390 1390 1391 1391